.
WxDataArchive / Data Records for 2013-07-03
2013-07-02 July 2013 2013-07-04

Data Records for Wednesday, 03 July 2013

Time	Temp	Chill	HIndex	Humid	Dewpt	 Wind 	HiWind	WindDir	Rain 	Barom 
-----	----	-----	------	-----	-----	------	------	-------	-----	----- 
00:00	66.0	66.0	66.0	92	63.6	2	6	90	0.00	30.019 
00:05	66.0	66.0	66.0	92	63.6	2	5	90	0.00	30.019 
00:10	66.0	66.0	66.0	92	63.6	1	5	112	0.00	30.019 
00:15	66.0	66.0	66.0	92	63.6	1	3	112	0.00	30.013 
00:20	65.8	65.8	65.8	92	63.4	1	3	112	0.00	30.013 
00:25	65.8	65.8	65.8	92	63.4	1	4	112	0.00	30.013 
00:30	65.6	65.6	65.6	92	63.2	2	5	112	0.00	30.012 
00:35	65.6	65.6	65.6	92	63.2	1	3	112	0.00	30.012 
00:40	65.6	65.6	65.6	92	63.2	1	4	112	0.00	30.012 
00:45	65.6	65.6	65.6	92	63.2	1	4	112	0.00	30.016 
00:50	65.6	65.6	65.6	92	63.2	1	3	112	0.00	30.016 
00:55	65.5	65.5	65.5	92	63.1	1	4	90	0.00	30.016 
01:00	65.5	65.5	65.5	92	63.1	1	3	90	0.00	30.023 
01:05	65.5	65.5	65.5	92	63.1	2	4	90	0.00	30.023 
01:10	65.5	65.5	65.5	93	63.4	1	4	112	0.01	30.023 
01:15	65.5	65.5	65.5	93	63.4	1	5	112	0.00	30.023 
01:20	65.5	65.5	65.5	93	63.4	0	4	112	0.00	30.023 
01:25	65.3	65.3	65.3	93	63.2	0	0	---	0.01	30.023 
01:30	65.5	65.5	65.5	93	63.4	0	2	112	0.00	30.023 
01:35	65.5	65.5	65.5	94	63.7	1	3	112	0.01	30.023 
01:40	65.3	65.3	65.3	94	63.5	1	3	112	0.00	30.023 
01:45	65.3	65.3	65.3	94	63.5	0	2	112	0.01	30.024 
01:50	65.3	65.3	65.3	94	63.5	1	5	112	0.00	30.024 
01:55	65.2	65.2	65.2	94	63.4	1	3	112	0.00	30.024 
02:00	65.2	65.2	65.2	94	63.4	1	3	112	0.00	30.008 
02:05	65.0	65.0	65.0	94	63.2	1	4	112	0.00	30.008 
02:10	64.8	64.8	64.8	94	63.0	1	3	112	0.00	30.008 
02:15	64.7	64.7	64.7	94	62.9	1	4	112	0.00	30.008 
02:20	64.7	64.7	64.7	95	63.2	1	3	112	0.00	30.008 
02:25	64.5	64.5	64.5	95	63.0	1	3	112	0.00	30.008 
02:30	64.5	64.5	64.5	95	63.0	1	3	112	0.00	30.005 
02:35	64.3	64.3	64.3	95	62.8	1	3	112	0.00	30.005 
02:40	64.3	64.3	64.3	95	62.8	1	4	112	0.00	30.005 
02:45	64.3	64.3	64.3	95	62.8	1	3	112	0.00	30.001 
02:50	64.3	64.3	64.3	95	62.8	1	3	112	0.00	30.001 
02:55	64.3	64.3	64.3	95	62.8	1	5	90	0.00	30.001 
03:00	64.3	64.3	64.3	95	62.8	0	3	90	0.00	29.993 
03:05	64.3	64.3	64.3	95	62.8	1	3	90	0.00	29.993 
03:10	64.5	64.5	64.5	95	63.0	1	3	90	0.00	29.993 
03:15	64.7	64.7	64.7	96	63.5	1	2	90	0.00	29.989 
03:20	64.7	64.7	64.7	96	63.5	1	3	90	0.00	29.989 
03:25	64.8	64.8	64.8	96	63.6	1	5	90	0.00	29.989 
03:30	64.8	64.8	64.8	96	63.6	0	2	90	0.00	29.987 
03:35	64.8	64.8	64.8	96	63.6	1	3	90	0.00	29.987 
03:40	64.8	64.8	64.8	96	63.6	0	3	90	0.00	29.987 
03:45	64.8	64.8	64.8	96	63.6	0	2	90	0.00	29.988 
03:50	64.8	64.8	64.8	96	63.6	2	4	90	0.00	29.988 
03:55	64.7	64.7	64.7	96	63.5	1	4	90	0.00	29.988 
04:00	64.7	64.7	64.7	96	63.5	1	4	90	0.00	29.991 
04:05	64.7	64.7	64.7	96	63.5	1	3	90	0.00	29.991 
04:10	64.7	64.7	64.7	96	63.5	2	4	90	0.00	29.991 
04:15	64.7	64.7	64.7	96	63.5	1	5	90	0.00	29.996 
04:20	64.7	64.7	64.7	96	63.5	1	4	90	0.00	29.996 
04:25	64.7	64.7	64.7	96	63.5	1	4	90	0.00	29.996 
04:30	64.7	64.7	64.7	96	63.5	1	3	90	0.00	29.996 
04:35	64.7	64.7	64.7	96	63.5	0	2	90	0.00	29.996 
04:40	64.7	64.7	64.7	96	63.5	1	3	90	0.00	29.996 
04:45	64.8	64.8	64.8	96	63.6	0	3	90	0.00	29.998 
04:50	64.8	64.8	64.8	96	63.6	1	4	90	0.00	29.998 
04:55	64.8	64.8	64.8	96	63.6	1	4	90	0.00	29.998 
05:00	64.8	64.8	64.8	96	63.6	0	2	90	0.00	30.003 
05:05	64.8	64.8	64.8	96	63.6	0	3	90	0.00	30.003 
05:10	64.8	64.8	64.8	96	63.6	0	3	90	0.00	30.003 
05:15	65.0	65.0	65.0	96	63.8	1	2	90	0.00	30.002 
05:20	65.0	65.0	65.0	96	63.8	0	2	90	0.00	30.002 
05:25	65.0	65.0	65.0	96	63.8	0	2	90	0.00	30.002 
05:30	65.0	65.0	65.0	96	63.8	0	1	90	0.00	30.002 
05:35	65.0	65.0	65.0	96	63.8	0	2	90	0.00	30.002 
05:40	65.0	65.0	65.0	96	63.8	0	1	90	0.00	30.002 
05:45	65.0	65.0	65.0	96	63.8	0	2	90	0.00	30.004 
05:50	65.0	65.0	65.0	96	63.8	0	1	90	0.00	30.004 
05:55	65.2	65.2	65.2	96	64.0	0	1	90	0.00	30.004 
06:00	65.2	65.2	65.2	96	64.0	0	1	90	0.00	30.012 
06:05	65.2	65.2	65.2	96	64.0	0	3	90	0.00	30.012 
06:10	65.2	65.2	65.2	96	64.0	0	2	90	0.00	30.012 
06:15	65.2	65.2	65.2	96	64.0	0	1	90	0.00	30.020 
06:20	65.2	65.2	65.2	96	64.0	0	1	90	0.00	30.020 
06:25	65.0	65.0	65.0	96	63.8	0	0	---	0.00	30.020 
06:30	65.2	65.2	65.2	96	64.0	0	1	90	0.00	30.020 
06:35	65.0	65.0	65.0	96	63.8	0	1	90	0.00	30.020 
06:40	65.0	65.0	65.0	96	63.8	0	0	---	0.00	30.020 
06:45	65.2	65.2	65.2	96	64.0	0	0	---	0.00	30.025 
06:50	65.2	65.2	65.2	96	64.0	0	1	90	0.00	30.025 
06:55	65.0	65.0	65.0	96	63.8	0	0	---	0.00	30.025 
07:00	65.0	65.0	65.0	97	64.1	0	1	90	0.00	30.029 
07:05	65.0	65.0	65.0	96	63.8	0	1	90	0.00	30.029 
07:10	65.0	65.0	65.0	97	64.1	0	1	90	0.00	30.029 
07:15	65.0	65.0	65.0	97	64.1	0	1	90	0.00	30.036 
07:20	65.0	65.0	65.0	97	64.1	0	0	---	0.00	30.036 
07:25	65.0	65.0	65.0	97	64.1	0	0	---	0.00	30.036 
07:30	65.0	65.0	65.0	97	64.1	0	0	---	0.00	30.037 
07:35	65.0	65.0	65.0	97	64.1	0	1	90	0.00	30.037 
07:40	65.0	65.0	65.0	97	64.1	0	2	90	0.00	30.037 
07:45	65.2	65.2	65.2	97	64.3	0	1	90	0.00	30.037 
07:50	65.3	65.3	65.3	97	64.4	0	1	90	0.00	30.037 
07:55	65.3	65.3	65.3	97	64.4	0	1	90	0.00	30.037 
08:00	65.5	65.5	65.5	97	64.6	0	1	90	0.00	30.037 
08:05	65.5	65.5	65.5	97	64.6	0	1	90	0.00	30.037 
08:10	65.5	65.5	65.5	97	64.6	0	1	135	0.00	30.037 
08:15	65.5	65.5	65.5	97	64.6	0	0	---	0.00	30.041 
08:20	65.8	65.8	65.8	97	64.9	0	1	135	0.00	30.041 
08:25	66.0	66.0	66.0	97	65.1	0	1	135	0.00	30.041 
08:30	66.4	66.4	66.4	97	65.5	0	1	135	0.00	30.048 
08:35	66.4	66.4	66.4	97	65.5	0	1	135	0.00	30.048 
08:40	66.8	66.8	66.8	97	65.9	0	1	135	0.00	30.048 
08:45	67.1	67.1	67.1	97	66.2	0	2	135	0.00	30.053 
08:50	67.4	67.4	67.4	97	66.5	0	3	135	0.00	30.053 
08:55	67.8	67.8	67.8	97	66.9	0	2	158	0.00	30.053 
09:00	68.3	68.3	68.3	97	67.4	0	2	158	0.00	30.060 
09:05	68.6	68.6	68.6	96	67.4	0	1	158	0.00	30.060 
09:10	68.8	68.8	68.8	96	67.6	0	3	158	0.00	30.060 
09:15	69.1	69.1	69.1	96	67.9	0	3	158	0.00	30.062 
09:20	69.6	69.6	69.6	95	68.1	0	2	112	0.00	30.062 
09:25	69.8	69.8	69.8	93	67.7	1	4	90	0.00	30.062 
09:30	70.3	70.3	70.3	92	67.9	0	2	90	0.00	30.065 
09:35	70.8	70.8	70.8	90	67.7	0	2	90	0.00	30.065 
09:40	70.9	70.9	70.9	88	67.2	1	3	112	0.00	30.065 
09:45	71.3	71.3	71.3	88	67.6	0	2	112	0.00	30.066 
09:50	72.0	72.0	72.0	87	67.9	0	2	112	0.00	30.066 
09:55	72.7	72.7	72.7	85	67.9	0	2	112	0.00	30.066 
10:00	73.2	73.2	73.2	83	67.7	0	1	112	0.00	30.064 
10:05	73.3	73.3	73.3	82	67.5	0	2	112	0.00	30.064 
10:10	73.5	73.5	73.5	82	67.7	0	1	112	0.00	30.064 
10:15	73.7	73.7	73.7	82	67.9	0	2	112	0.00	30.063 
10:20	74.6	74.6	74.6	79	67.6	0	3	112	0.00	30.063 
10:25	75.3	75.3	76.3	77	67.6	1	2	135	0.00	30.063 
10:30	75.3	75.3	76.4	76	67.2	1	3	135	0.00	30.061 
10:35	75.8	75.8	77.1	75	67.3	0	2	90	0.00	30.061 
10:40	75.4	75.4	76.8	73	66.1	0	2	90	0.00	30.061 
10:45	75.3	75.3	76.7	73	66.0	0	2	90	0.00	30.062 
10:50	75.4	75.4	76.8	73	66.1	0	2	90	0.00	30.062 
10:55	76.3	76.3	77.9	72	66.6	0	2	90	0.00	30.062 
11:00	76.8	76.8	78.6	69	65.8	1	6	45	0.00	30.061 
11:05	77.2	77.2	79.0	69	66.2	0	2	45	0.00	30.061 
11:10	77.4	77.4	79.2	66	65.1	1	3	292	0.00	30.061 
11:15	77.2	77.2	79.0	67	65.4	1	4	248	0.00	30.063 
11:20	77.4	77.4	79.2	69	66.4	0	2	248	0.00	30.063 
11:25	77.7	77.7	79.5	65	65.0	1	4	270	0.00	30.063 
11:30	77.9	77.9	79.7	65	65.2	1	5	90	0.00	30.062 
11:35	78.1	78.1	80.0	65	65.4	1	7	112	0.00	30.062 
11:40	77.7	77.7	79.5	64	64.5	1	4	270	0.00	30.062 
11:45	77.0	77.0	78.8	66	64.8	0	3	270	0.00	30.064 
11:50	76.5	76.5	78.3	66	64.3	1	6	315	0.00	30.064 
11:55	76.5	76.5	78.3	66	64.3	1	4	315	0.00	30.064 
12:00	76.8	76.8	78.6	66	64.6	1	3	292	0.00	30.063 
12:05	77.2	77.2	79.0	65	64.5	1	2	270	0.00	30.063 
12:10	77.2	77.2	79.0	66	64.9	1	3	270	0.00	30.063 
12:15	77.4	77.4	79.2	65	64.7	1	3	270	0.00	30.062 
12:20	77.4	77.4	79.2	65	64.7	1	2	270	0.00	30.062 
12:25	77.9	77.9	79.7	65	65.2	1	3	270	0.00	30.062 
12:30	79.0	79.0	80.8	62	64.8	1	4	248	0.00	30.058 
12:35	80.1	80.1	82.3	63	66.3	0	2	68	0.00	30.058 
12:40	80.3	80.3	81.8	57	63.7	2	6	45	0.00	30.058 
12:45	79.8	79.8	81.7	61	65.1	0	4	90	0.00	30.059 
12:50	79.9	79.9	81.7	60	64.7	1	5	90	0.00	30.059 
12:55	79.9	79.9	81.5	58	63.8	1	3	45	0.00	30.059 
13:00	79.6	79.6	81.3	60	64.5	1	3	292	0.00	30.059 
13:05	79.8	79.8	81.6	60	64.7	1	3	68	0.00	30.059 
13:10	79.8	79.8	81.5	59	64.2	0	4	112	0.00	30.059 
13:15	79.0	79.0	80.5	58	62.9	1	4	270	0.00	30.058 
13:20	78.6	78.6	80.4	62	64.5	0	2	292	0.00	30.058 
13:25	79.0	79.0	80.8	62	64.8	0	2	292	0.00	30.058 
13:30	79.9	79.9	81.7	60	64.7	1	3	68	0.00	30.051 
13:35	80.1	80.1	81.6	57	63.5	2	4	270	0.00	30.051 
13:40	79.9	79.9	81.3	56	62.8	1	5	90	0.00	30.051 
13:45	80.3	80.3	82.3	61	65.6	1	4	338	0.00	30.046 
13:50	80.7	80.7	82.8	61	66.0	1	4	270	0.00	30.046 
13:55	80.5	80.5	82.1	57	63.8	1	3	315	0.00	30.046 
14:00	80.5	80.5	82.2	58	64.3	1	6	90	0.00	30.044 
14:05	81.1	81.1	82.6	56	63.9	1	4	68	0.00	30.044 
14:10	81.2	81.2	82.9	57	64.5	1	5	90	0.00	30.044 
14:15	81.4	81.4	83.3	58	65.2	1	3	90	0.00	30.046 
14:20	82.0	82.0	83.9	57	65.2	1	3	90	0.00	30.046 
14:25	82.4	82.4	84.1	55	64.6	1	5	90	0.00	30.046 
14:30	82.6	82.6	84.0	53	63.7	2	4	90	0.00	30.041 
14:35	82.2	82.2	83.3	52	62.8	2	6	270	0.00	30.041 
14:40	82.2	82.2	83.8	55	64.4	1	5	270	0.00	30.041 
14:45	82.6	82.6	84.5	56	65.3	1	3	90	0.00	30.045 
14:50	81.8	81.8	83.2	54	63.5	1	4	270	0.00	30.045 
14:55	81.6	81.6	83.1	55	63.8	2	4	90	0.00	30.045 
15:00	81.1	81.1	82.3	54	62.9	1	4	68	0.00	30.045 
15:05	80.7	80.7	81.9	54	62.5	1	4	292	0.00	30.045 
15:10	80.9	80.9	82.4	56	63.7	1	4	90	0.00	30.045 
15:15	81.2	81.2	82.5	54	62.9	1	5	90	0.00	30.041 
15:20	81.2	81.2	82.6	55	63.5	1	2	90	0.00	30.041 
15:25	81.1	81.1	82.3	54	62.9	1	4	248	0.00	30.041 
15:30	81.4	81.4	82.7	54	63.1	1	4	248	0.00	30.044 
15:35	81.4	81.4	82.7	54	63.1	1	5	248	0.00	30.044 
15:40	80.9	80.9	82.3	55	63.2	1	3	45	0.00	30.044 
15:45	80.3	80.3	81.6	55	62.6	1	7	225	0.00	30.042 
15:50	80.7	80.7	82.5	59	65.0	1	7	248	0.00	30.042 
15:55	80.9	80.9	82.3	55	63.2	1	4	248	0.00	30.042 
16:00	80.7	80.7	81.7	52	61.4	1	4	270	0.00	30.029 
16:05	80.5	80.5	81.9	56	63.3	1	3	22	0.00	30.029 
16:10	79.9	79.9	81.3	56	62.8	1	4	315	0.00	30.029 
16:15	79.8	79.8	81.4	58	63.7	0	2	315	0.00	30.031 
16:20	79.6	79.6	81.4	61	64.9	1	4	315	0.00	30.031 
16:25	79.6	79.6	81.1	57	63.0	2	5	315	0.00	30.031 
16:30	79.8	79.8	81.6	60	64.7	1	4	112	0.00	30.036 
16:35	80.1	80.1	81.9	60	64.9	1	3	112	0.00	30.036 
16:40	79.9	79.9	81.6	59	64.3	1	3	112	0.00	30.036 
16:45	79.8	79.8	81.4	58	63.7	1	3	112	0.00	30.032 
16:50	79.6	79.6	81.2	58	63.5	0	3	112	0.00	30.032 
16:55	79.8	79.8	81.4	58	63.7	0	1	112	0.00	30.032 
17:00	79.6	79.6	81.3	59	64.0	0	2	112	0.00	30.032 
17:05	79.6	79.6	81.2	58	63.5	0	2	112	0.00	30.032 
17:10	79.4	79.4	81.0	59	63.8	0	2	112	0.00	30.032 
17:15	79.4	79.4	81.0	59	63.8	0	2	112	0.00	30.030 
17:20	79.2	79.2	80.8	59	63.6	1	3	112	0.00	30.030 
17:25	79.9	79.9	81.5	58	63.8	1	2	112	0.00	30.030 
17:30	80.5	80.5	81.9	56	63.3	1	3	112	0.00	30.028 
17:35	80.7	80.7	82.3	57	64.0	1	4	112	0.00	30.028 
17:40	80.7	80.7	82.2	56	63.5	1	4	112	0.00	30.028 
17:45	80.5	80.5	82.1	57	63.8	0	1	292	0.00	30.028 
17:50	80.3	80.3	81.7	56	63.1	1	3	292	0.00	30.028 
17:55	79.9	79.9	81.3	56	62.8	1	3	292	0.00	30.028 
18:00	79.6	79.6	81.1	57	63.0	1	4	292	0.00	30.029 
18:05	79.4	79.4	80.9	58	63.3	0	2	292	0.00	30.029 
18:10	79.2	79.2	80.8	59	63.6	0	2	270	0.00	30.029 
18:15	79.4	79.4	81.1	60	64.3	0	1	270	0.00	30.029 
18:20	79.2	79.2	80.7	58	63.1	1	3	338	0.00	30.029 
18:25	79.0	79.0	80.5	58	62.9	0	2	315	0.00	30.029 
18:30	78.8	78.8	80.3	58	62.8	1	2	315	0.00	30.028 
18:35	78.8	78.8	80.4	59	63.2	0	1	315	0.00	30.028 
18:40	79.2	79.2	80.8	59	63.6	0	1	90	0.00	30.028 
18:45	79.4	79.4	80.9	57	62.8	0	3	90	0.00	30.025 
18:50	79.4	79.4	80.9	57	62.8	1	3	90	0.00	30.025 
18:55	79.4	79.4	80.8	56	62.3	1	3	292	0.00	30.025 
19:00	79.4	79.4	81.0	59	63.8	0	2	292	0.00	30.021 
19:05	79.4	79.4	81.0	59	63.8	0	1	292	0.00	30.021 
19:10	79.2	79.2	80.7	58	63.1	0	1	292	0.00	30.021 
19:15	79.0	79.0	80.5	58	62.9	0	1	292	0.00	30.028 
19:20	79.0	79.0	80.5	58	62.9	1	3	292	0.00	30.028 
19:25	79.0	79.0	80.6	59	63.4	0	2	292	0.00	30.028 
19:30	79.2	79.2	80.7	58	63.1	0	2	292	0.00	30.028 
19:35	79.0	79.0	80.6	59	63.4	0	2	292	0.00	30.028 
19:40	78.8	78.8	80.3	58	62.8	0	1	292	0.00	30.028 
19:45	78.5	78.5	80.1	59	63.0	0	1	292	0.00	30.028 
19:50	78.3	78.3	80.0	60	63.2	0	1	292	0.00	30.028 
19:55	78.1	78.1	79.8	60	63.1	0	1	292	0.00	30.028 
20:00	77.7	77.7	79.4	59	62.2	0	0	---	0.00	30.027 
20:05	77.6	77.6	79.3	60	62.6	0	0	---	0.00	30.027 
20:10	77.4	77.4	79.1	61	62.9	0	2	292	0.00	30.027 
20:15	77.2	77.2	79.0	61	62.7	0	1	292	0.00	30.029 
20:20	77.0	77.0	78.8	62	63.0	0	1	292	0.00	30.029 
20:25	76.8	76.8	78.6	62	62.8	0	1	292	0.00	30.029 
20:30	76.7	76.7	78.5	62	62.7	0	1	292	0.00	30.031 
20:35	76.7	76.7	78.5	63	63.1	0	0	---	0.00	30.031 
20:40	76.5	76.5	78.3	64	63.4	0	0	---	0.00	30.031 
20:45	76.3	76.3	78.2	64	63.2	0	0	---	0.00	30.038 
20:50	76.1	76.1	78.0	64	63.0	0	0	---	0.00	30.038 
20:55	76.0	76.0	77.9	65	63.4	0	0	---	0.00	30.038 
21:00	75.8	75.8	77.7	65	63.2	0	1	292	0.00	30.041 
21:05	75.6	75.6	77.5	65	63.0	0	0	---	0.00	30.041 
21:10	75.4	75.4	77.3	66	63.2	0	0	---	0.00	30.041 
21:15	75.3	75.3	77.2	66	63.1	0	0	---	0.00	30.039 
21:20	75.1	75.1	77.0	67	63.4	0	0	---	0.00	30.039 
21:25	74.7	74.7	74.7	67	63.0	0	0	---	0.00	30.039 
21:30	74.6	74.6	74.6	69	63.7	0	0	---	0.00	30.039 
21:35	74.2	74.2	74.2	69	63.4	0	0	---	0.00	30.039 
21:40	74.0	74.0	74.0	70	63.6	0	0	---	0.00	30.039 
21:45	73.9	73.9	73.9	71	63.9	0	0	---	0.00	30.041 
21:50	73.7	73.7	73.7	72	64.1	0	1	292	0.00	30.041 
21:55	73.5	73.5	73.5	73	64.3	0	0	---	0.00	30.041 
22:00	73.3	73.3	73.3	73	64.1	0	0	---	0.00	30.044 
22:05	73.2	73.2	73.2	74	64.4	0	0	---	0.00	30.044 
22:10	73.2	73.2	73.2	74	64.4	0	0	---	0.00	30.044 
22:15	73.0	73.0	73.0	75	64.6	0	0	---	0.00	30.045 
22:20	73.0	73.0	73.0	76	65.0	0	0	---	0.00	30.045 
22:25	72.8	72.8	72.8	77	65.2	0	0	---	0.00	30.045 
22:30	72.7	72.7	72.7	78	65.4	0	1	292	0.00	30.054 
22:35	72.7	72.7	72.7	79	65.8	0	3	45	0.00	30.054 
22:40	72.8	72.8	72.8	80	66.3	0	2	45	0.00	30.054 
22:45	72.7	72.7	72.7	81	66.5	0	1	45	0.00	30.055 
22:50	72.7	72.7	72.7	81	66.5	0	1	45	0.00	30.055 
22:55	72.5	72.5	72.5	81	66.3	0	1	45	0.00	30.055 
23:00	72.5	72.5	72.5	81	66.3	0	0	---	0.00	30.055 
23:05	72.3	72.3	72.3	81	66.1	0	0	---	0.00	30.055 
23:10	72.3	72.3	72.3	81	66.1	0	0	---	0.00	30.055 
23:15	72.1	72.1	72.1	81	65.9	0	0	---	0.00	30.054 
23:20	72.0	72.0	72.0	81	65.8	0	0	---	0.00	30.054 
23:25	71.8	71.8	71.8	81	65.6	0	0	---	0.00	30.054 
23:30	71.6	71.6	71.6	81	65.4	0	0	---	0.00	30.057 
23:35	71.5	71.5	71.5	81	65.4	0	0	---	0.00	30.057 
23:40	71.3	71.3	71.3	81	65.2	0	0	---	0.00	30.057 
23:45	71.3	71.3	71.3	81	65.2	0	0	---	0.00	30.057 
23:50	71.3	71.3	71.3	81	65.2	0	0	---	0.00	30.057 
23:55	71.1	71.1	71.1	81	65.0	0	0	---	0.00	30.057 

CoCoRaHS
IN-AL-39
A2 Web Hosting
Creative Commons License
GoDaddy
search engine by freefind advanced

loaded 2018-11-12 20:09:17 • last modified 2010-11-18 10:43:29
Privacy PolicyDisclaimer
• wx.awcolley.com is powered by PmWiki v.2002016 •
• all content (unless otherwise noted) © 2018 A W Colley